Ponce, PR

6:19 PM AST on August 20, 2017 (GMT -0400)
Mercedita

Weather History for TJPS - January, 2014

Change the Weather History Date:

Friday, January 31, 2014

  Actual Average Record
Temperature  
Mean Temperature 79 °F -  
Max Temperature 87 °F 85 °F 89 °F (2001)
Min Temperature 71 °F 67 °F 62 °F (1999)
Cooling Degree Days 14    
Growing Degree Days 29 (Base 50)    
Moisture  
Dew Point 66 °F    
Average Humidity 67    
Maximum Humidity 78    
Minimum Humidity 46    
Precipitation  
Precipitation 0.00 in - - ()
Sea Level Pressure  
Sea Level Pressure 30.03 in    
Wind  
Wind Speed 6 mph (East)    
Max Wind Speed 12 mph    
Max Gust Speed 17 mph    
Visibility 9 miles    
Events      
Averages and records for this station are not official NWS values.
T = Trace of Precipitation, MM = Missing Value Source: NWS Daily Summary

Daily Weather History Graph

Daily Weather History Graph

Search for Another Location

Airport or City:

Trip Planner

Search our weather history database for the weather conditions in past years. The results will help you decide how hot, cold, wet, or windy it might be!

Date:

Astronomy

Jan. 31, 2014 Rise Set
Actual Time 6:59 AM AST 6:20 PM AST
Civil Twilight 6:36 AM AST 6:43 PM AST
Nautical Twilight 6:10 AM AST 7:09 PM AST
Astronomical Twilight 5:44 AM AST 7:35 PM AST
Moon 7:20 AM AST (1/31) 7:21 PM AST (1/31)
Length of Visible Light 12h 06m
Length of Day
11h 21m
New Moon, 1% of the Moon is Illuminated
Jan 31
New Moon
Feb 6
First Quarter
Feb 14
Full
Feb 22
Last Quarter
Mar 1
New

Hourly Weather History & Observations

Time (AST) Temp. Heat Index Dew Point Humidity Pressure Visibility Wind Dir Wind Speed Gust Speed Precip Events Conditions
12:50 AM 73.4 °F - 66.2 °F 78% 30.05 in 8.0 mi ENE 5.8 mph - N/A   Partly Cloudy
1:50 AM 73.4 °F - 66.2 °F 78% 30.04 in 8.0 mi NE 5.8 mph - N/A   Partly Cloudy
2:50 AM 73.4 °F - 64.4 °F 73% 30.03 in 8.0 mi ENE 5.8 mph - N/A   Partly Cloudy
3:50 AM 73.4 °F - 64.4 °F 73% 30.02 in 8.0 mi Calm Calm - N/A   Partly Cloudy
4:50 AM 71.6 °F - 64.4 °F 78% 30.02 in 8.0 mi Calm Calm - N/A   Partly Cloudy
5:50 AM 71.6 °F - 64.4 °F 78% 30.02 in 8.0 mi NE 5.8 mph - N/A   Partly Cloudy
6:50 AM 71.6 °F - 64.4 °F 78% 30.02 in 10.0 mi Calm Calm - N/A   Partly Cloudy
7:50 AM 73.4 °F - 66.2 °F 78% 30.06 in 10.0 mi Calm Calm - N/A   Partly Cloudy
10:50 AM 87.8 °F 90.4 °F 66.2 °F 49% 30.08 in 10.0 mi ENE 11.5 mph - N/A   Partly Cloudy
11:50 AM 87.8 °F 89.4 °F 64.4 °F 46% 30.04 in 10.0 mi East 11.5 mph - N/A   Partly Cloudy
12:50 PM 87.8 °F 89.4 °F 64.4 °F 46% 30.02 in 10.0 mi SSE 11.5 mph 17.3 mph N/A   Partly Cloudy
2:50 PM 87.8 °F 93.8 °F 71.6 °F 58% 29.99 in 10.0 mi SE 11.5 mph 17.3 mph N/A   Partly Cloudy
3:50 PM 87.8 °F 93.8 °F 71.6 °F 58% 29.99 in 10.0 mi ESE 11.5 mph 17.3 mph N/A   Partly Cloudy
4:50 PM 86.0 °F 88.2 °F 66.2 °F 51% 29.98 in 10.0 mi ESE 11.5 mph - N/A   Partly Cloudy
5:50 PM 82.4 °F 84.6 °F 66.2 °F 58% 30.01 in 10.0 mi ENE 11.5 mph - N/A   Partly Cloudy
6:50 PM 78.8 °F - 69.8 °F 74% 30.01 in 10.0 mi East 5.8 mph - N/A   Partly Cloudy
8:50 PM 75.2 °F - 64.4 °F 69% 30.03 in 10.0 mi NE 5.8 mph - N/A   Partly Cloudy
9:50 PM 75.2 °F - 64.4 °F 69% 30.03 in 10.0 mi NE 5.8 mph - N/A   Partly Cloudy
11:50 PM 73.4 °F - 64.4 °F 73% 30.04 in 10.0 mi ENE 5.8 mph - N/A   Partly Cloudy